Flag for Germany Weather past 2 weeks in Heide, Schleswig-Holstein, Germany

Now
68 °F

Mild.


Feels Like: 68 °F
Forecast: 61 / 79 °F
Wind: 6 mph from Southeast

Location: Hohn

Current Time: Aug 4, 2015 at 1:32:16 AM

Latest Report: Aug 4, 2015 at 12:20 AM


Visibility: 4 mi

Pressure: 29.95 "Hg

Humidity: 69%

Dew point: 57 °F

Location of HeideLocation

Historic Weather in Heide — Graph

°F

Heide temperature yesterday

Maximum temperature yesterday: 84 °F (at 4:20 PM)
Minimum temperature yesterday: 48 °F (at 5:20 AM)
Average temperature yesterday: 68 °F

Past Weeks' High & Low Weather Summary

 TemperatureHumidityPressure
High84 °F (Aug 3, 4:20 PM)100% (Jul 21, 4:20 AM)30.15 "Hg (Jul 21, 4:20 AM)
Low43 °F (Aug 1, 3:20 AM)42% (Aug 3, 3:20 PM)29.39 "Hg (Jul 28, 4:20 AM)
Average60 °F79%29.80 "Hg
* Reported Jul 20 12:20 AM — Aug 4 12:20 AM, Heide, Weather by CustomWeather, © 2015

Note: Actual official high and low records may vary slightly from our data, if they occured in-between our weather recording intervals... More about our weather records

Advertising

Heide weather history for previous 24 hours

 ConditionsComfort  
Time TempWeatherWind HumidityBarometerVisibility
12:20 AM
Tue, Aug 4
68 °FMild.6 mph69%29.95 "Hg4 mi
11:45 PM
Mon, Aug 3
68 °FPassing clouds.5 mph73%29.95 "HgN/A
11:20 PM70 °FPassing clouds.5 mph69%29.95 "HgN/A
10:20 PM72 °FPassing clouds.6 mph65%29.95 "HgN/A
9:20 PM75 °FScattered clouds.6 mph57%29.95 "HgN/A
8:20 PM79 °FScattered clouds.7 mph54%29.95 "HgN/A
7:20 PM82 °FPassing clouds.5 mph48%29.95 "HgN/A
6:20 PM84 °FPassing clouds.6 mph43%29.95 "HgN/A
5:20 PM84 °FPassing clouds.8 mph43%29.98 "HgN/A
4:20 PM84 °FPassing clouds.8 mph43%29.98 "HgN/A
3:20 PM82 °FPassing clouds.7 mph42%30.01 "HgN/A
2:20 PM81 °FPassing clouds.10 mph45%30.01 "HgN/A
1:20 PM79 °FPassing clouds.10 mph45%30.04 "HgN/A
12:20 PM75 °FPassing clouds.13 mph47%30.04 "HgN/A
11:20 AM73 °FPassing clouds.12 mph50%30.07 "HgN/A
10:20 AM70 °FPassing clouds.12 mph53%30.07 "HgN/A
9:20 AM66 °FPassing clouds.9 mph64%30.09 "HgN/A
8:20 AM63 °FPassing clouds.7 mph68%30.09 "HgN/A
7:20 AM57 °FPassing clouds.5 mph88%30.09 "HgN/A
6:20 AM52 °FFog.3 mph94%30.09 "Hg5 mi
5:20 AM48 °FFog.1 mph100%30.09 "Hg5 mi
4:20 AM50 °FCool.3 mph100%30.09 "Hg2 mi
3:20 AM52 °FCool.2 mph94%30.12 "Hg0 mi
2:20 AM52 °FCool.3 mph100%30.12 "Hg1 mi
1:20 AM50 °FCool.2 mph100%30.12 "Hg1 mi
Weather by CustomWeather, © 2015

See weather overviewHow to use our weather pages